User: anonymous   Login
Location: Unspecified
(0.0000°N, 0.0000°E)
Time: 11:03:42
(UTC+00:00)
Language:

Oscar 11 - Orbit

View from above orbital plane
View from above orbital plane
View from above satellite
View from above satellite

Ground track
Ground track

The orbit data is extracted from the following two-line orbital elements,

1 14781U 84021B   17268.70706163  .00000124  00000-0  21492-4 0  9999
2 14781  97.6870 310.6623 0007465 223.0543 137.0087 14.82933633805249
Epoch (UTC): 25 September 2017 16:58:10
Eccentricity: 0.0007465
inclination: 97.6870°
perigee height: 615 km
apogee height: 625 km
right ascension of ascending node: 310.6623°
argument of perigee: 223.0543°
revolutions per day: 14.82933633
mean anomaly at epoch: 137.0087°
orbit number at epoch: 80524

The dashed part of the orbit path shows where the satellite is in the earth's shadow,  

DLR